Regional Weather Roundup
Issued by NWS

Home | Current Version | Previous Version | Graphics & Text | Print | Product List | Glossary On
Versions: 1 2 3 4 5 6 7 8 9 10 11 12 13 14 15 16 17 18 19 20 21 22 23 24 25 26 27 28 29 30 31 32 33 34 35 36 37 38 39 40 41 42 43 44 45 46 47 48 49 50
000
ASUS43 KMKX 262311
RWRWI

WISCONSIN REGIONAL WEATHER ROUNDUP
NATIONAL WEATHER SERVICE MILWAUKEE/SULLIVAN WI
500 PM CST THU FEB 26 2015

NOTE: "FAIR" INDICATES FEW OR NO CLOUDS BELOW 12,000 FEET WITH NO
SIGNIFICANT WEATHER AND/OR OBSTRUCTIONS TO VISIBILITY.

WIZ001-002-006>008-014>016-023>028-270000-
NORTHWEST WISCONSIN

CITY           SKY/WX    TMP DP  RH WIND       PRES   REMARKS
SUPERIOR ARPT  CLEAR     10  -8  44 NW12      30.41S WCI  -5
ASHLAND        CLEAR      8  -9  45 W9        30.38S WCI  -5
HAYWARD        CLEAR      9 -12  38 VRB6      30.34S WCI  -1
SIREN          CLEAR      9  -9  45 NW9       30.40S WCI  -5
CUMBERLAND     CLEAR      9  -9  43 NW9       30.36R WCI  -5
RICE LAKE      CLEAR      9 -10  42 W8        30.38S WCI  -3
CHETEK         CLEAR      8  -9  44 W8        30.37S WCI  -4
LADYSMITH      CLEAR      9  -8  46 NW8       30.34S WCI  -3
EAU CLAIRE     CLEAR      9 -10  42 VRB7      30.39R WCI  -2
MENOMONIE      CLEAR      9  -8  45 W10       30.40S WCI  -5
NEW RICHMOND   CLEAR      8  -8  50 NW10      30.41S WCI  -7
OSCEOLA        CLEAR      9  -8  47 NW8       30.45S WCI  -4
$$

WIZ003>005-009-010-017-018-270000-
NORTH CENTRAL WISCONSIN

CITY           SKY/WX    TMP DP  RH WIND       PRES   REMARKS
MANITOWISH WTR CLEAR      4  -8  55 NW5       30.25S WCI  -5
ARBOR VITAE    CLEAR      7  -8  50 N7        30.25S WCI  -4
WOODRUFF       CLEAR      7  -8  50 N7        30.25S WCI  -4
RHINELANDER    CLEAR      7 -10  46 N9        30.24S WCI  -7
EAGLE RIVER    CLEAR      6 -11  46 NW8       30.23S WCI  -7
LAND O LAKES   CLEAR      6  -8  52 NW7       30.24S WCI  -6
PHILLIPS       CLEAR      8  -8  48 W5        30.28R WCI  -1
TOMAHAWK       CLEAR      9  -9  44 CALM      30.27R
MEDFORD        PTCLDY     8  -7  51 NW9       30.27S WCI  -6
MERRILL        CLEAR     10  -8  43 NW7       30.28R WCI  -1
$$

WIZ029-030-035-036-043>047-270000-
CENTRAL WISCONSIN

CITY           SKY/WX    TMP DP  RH WIND       PRES   REMARKS
WAUSAU         CLEAR     10  -8  44 NW9       30.27S WCI  -3
MOSINEE        PTCLDY     9  -6  52 W8        30.29R WCI  -4
MARSHFIELD     CLEAR      8  -6  52 NW13      30.31R WCI  -8
STEVENS POINT  CLEAR      9  -8  45 NW8       30.31R WCI  -3
WAUPACA        CLEAR     14  -8  36 NW9       30.33R WCI   2
WAUTOMA        CLEAR     10  -6  48 NW9       30.34R WCI  -3
WISC RAPIDS    CLEAR      9  -9  44 NW12      30.34R WCI  -6
CAMP DOUGLAS   PTCLDY    12  -6  44 N12       30.34R WCI  -2
$$

WIZ011>013-019>022-031-037>040-048>050-270000-
NORTHEAST WISCONSIN

CITY           SKY/WX    TMP DP  RH WIND       PRES   REMARKS
ANTIGO         CLEAR      7  -8  49 NW8       30.24S WCI  -5
SHAWANO        CLEAR     15  -9  34 CALM      30.31R
OCONTO         CLEAR      9  -2  62 S6        30.32R WCI  -1
STURGEON BAY   CLEAR      9  -6  52 SW3       30.33R
GREEN BAY      CLEAR     13  -4  46 W5        30.31S WCI   5
MANITOWOC      CLEAR     11  -4  51 N5        30.34R WCI   3
APPLETON       PTCLDY    10  -8  44 N9        30.31R WCI  -2
CLINTONVILLE   CLEAR     14  -8  37 NW7       30.31R WCI   4
OSHKOSH        PTCLDY    10  -4  53 E5        30.32R WCI   2
$$

WIZ032>034-041-042-053>061-270000-
SOUTHWEST WISCONSIN

CITY           SKY/WX    TMP DP  RH WIND       PRES   REMARKS
LA CROSSE      MOCLDY    11  -5  48 NW12      30.41R WCI  -3
SPARTA         CLEAR     10  -6  48 NW10      30.39R WCI  -4
VIROQUA        PTCLDY     6  -5  59 NW12      30.34R WCI  -9
BOSCOBEL       MOCLDY    12  -5  46 NW12      30.39R WCI  -2
PRAIRIE DU CHI MOCLDY    11  -5  47 NW12      30.40R WCI  -3
PLATTEVILLE    CLEAR     11  -5  49 W10       30.34R WCI  -3
$$

WIZ056-057-062-063-064-067-068-270000-
SOUTH CENTRAL WISCONSIN

CITY           SKY/WX    TMP DP  RH WIND       PRES   REMARKS
REEDSBURG      CLEAR     11  -6  46 NW8       30.34R WCI  -1
BARABOO/DELLS  MOCLDY    11  -7  44 NW9       30.32R WCI  -1
LONE ROCK      MOCLDY    12  -6  44 N10       30.37R WCI  -1
MINERAL POINT  PTCLDY    14  -6  41 NW9       30.31R WCI   2
MADISON        MOCLDY    12  -6  44 NW6       30.33R WCI   3
MIDDLETON      CLOUDY    13  -5  44 NW8       30.33R WCI   2
WATERTOWN      CLEAR     11  -4  50 N6        30.32R WCI   1
MONROE         CLEAR     10  -4  52 N5        30.31R WCI   2
JANESVILLE     CLEAR     12  -6  44 N12       30.33R WCI  -2
$$

WIZ051-052-058>065-066-070>072-270000-
SOUTHEAST WISCONSIN

CITY           SKY/WX    TMP DP  RH WIND       PRES   REMARKS
MILWAUKEE      PTCLDY    13  -7  40 NW10      30.32R WCI   0
WAUKESHA       CLEAR      9  -8  47 NW12      30.33R WCI  -6
MILWAUKEE/TIMM CLEAR     12  -6  44 NW8       30.33R WCI   1
RACINE         CLEAR     13  -2  51 N13       30.33R WCI  -2
BURLINGTON     CLEAR     10  -8  44 N10       30.32R WCI  -4
KENOSHA        CLEAR     12  -5  46 NW7       30.31R WCI   1
FOND DU LAC    CLEAR     10  -5  50 E3        30.33R
SHEBOYGAN      CLEAR     10  -5  50 N9        30.32R WCI  -3
WEST BEND      CLEAR     10  -8  44 NW9       30.32R WCI  -2
JUNEAU         CLEAR     10  -5  50 NW3       30.33R
$$

LSZ147-162-270000-
LAKE SUPERIOR

STATION/POSITION TIME  TEMP    WIND        PRES    WAVE
                       AIR SEA DIR/SP/G            HT/PER
                 (UTC) (F)     (DEG/KT/KT) (MB)    (FT/S)
DEVILS ISLAND    2300    9     230/ 16/ 19 1029.8F
PORT WING        2240   10     250/  8/ 13 1029.1S
SAXON HARBOR     2200    8     330/  5/  6 1028.4F
$$

LMZ867-665-643>646-270000-
LAKE MICHIGAN

STATION/POSITION TIME  TEMP    WIND        PRES    WAVE
                       AIR SEA DIR/SP/G            HT/PER
                 (UTC) (F)     (DEG/KT/KT) (MB)    (FT/S)
NORTHPORT PIER   2222   10     310/  2/  8 1026.4S
SISTER BAY       2143   17     340/  4/  5   N/A
KEWAUNEE LAKESHO 2200   10     340/  5/  8 1025.8R
SHEBOYGAN LAKESH 2300   10     340/ 11/ 12 1029.1R
PORT WASHINGTON  2200   13     350/  7/ 12 1027.4R
MILWAUKEE LAKESH 2200   13      10/ 11/ 14   N/A
KENOSHA   LAKESH 2300   14     330/ 10/ 13 1026.4R
$$

TC  - TEMPERATURE IN CELSIUS
VSB - VISIBILITY IN STATUTE MILES
WCI - WIND CHILL INDEX
HX  - HEAT INDEX



USA.gov is the U.S. government's official web portal to all federal, state and local government web resources and services.